Voltar ao catálogo

STARLINK-30469

AtivoComunicaçõesVLEO
NORAD 57896·PAYLOAD·🇺🇸 United States

Lançado Sep 20, 2023 de Cape Canaveral Space Force Station

Loading…

Próximas Passagens (próximas 24 horas)

TLE

AtualizadoSource: CelesTrak SupGP

Época: Sep 15, 2026, 03:16 UTC

1 57896C 23146F   26258.13659722 -.00072461  00000+0 -26277-2 0  2584
2 57896  43.0019 324.2806 0001344 260.7763 328.8770 15.27574925    15

Acompanhe STARLINK-30469 em tempo real com AllMySat

Download on the App Store